Wind_Speed
32 31 31 31 31 31 30 30 30 30 29 29 29 28 28 28 28 27 27 27 27 28 28 27 27 26 26 26 26 26 25 25 25 24 24 24 24 24 24 24 24 25 25
34 34 33 33 32 32 32 31 31 31 31 31 30 30 30 30 30 30 29 29 29 29 29 29 29 28 28 28 27 27 27 27 26 26 26 26 26 26 26 26 26 26 26
35 35 35 34 34 33 33 32 32 32 32 32 32 31 31 31 32 32 31 31 31 30 30 30 30 30 29 29 29 28 28 28 28 28 28 27 28 27 27 27 27 27 28
37 37 37 37 36 36 35 34 34 34 34 34 33 33 33 32 32 33 33 33 32 32 31 31 31 31 31 30 30 30 30 29 29 30 30 29 29 29 29 29 29 29 29
39 39 39 38 38 37 37 36 36 36 35 35 35 34 34 34 34 34 34 34 34 33 33 32 32 32 32 32 32 32 32 32 31 32 31 31 31 31 31 31 31 31 32
42 41 41 40 40 39 39 38 38 37 37 36 36 36 36 36 35 35 34 34 35 34 34 33 33 33 33 34 34 34 34 34 33 33 33 34 34 34 33 33 33 33 33
43 43 43 43 42 41 41 40 40 39 38 38 37 37 38 38 37 37 36 36 35 35 35 34 34 34 34 35 35 35 35 35 35 35 35 35 35 36 36 35 35 35 35
45 45 45 45 44 43 43 42 42 41 40 40 40 39 39 39 39 38 38 37 37 37 36 36 35 35 36 37 37 37 37 37 37 36 36 36 36 36 36 36 37 37 37
48 46 46 46 46 45 45 44 43 43 43 42 42 41 41 40 40 40 39 39 38 38 38 38 37 37 38 38 38 38 37 38 38 38 38 38 39 38 38 39 39 39 39
50 49 48 47 47 48 47 46 45 45 44 43 43 43 42 42 40 40 40 40 40 40 39 40 39 39 38 39 39 39 38 38 39 39 40 40 40 40 40 40 40 39 40
52 52 51 50 49 49 48 48 47 47 45 44 44 44 43 42 41 41 41 41 41 41 40 40 40 40 40 40 40 40 40 40 40 40 40 40 40 40 41 41 40 40 40
53 53 54 53 53 51 50 49 49 49 47 46 46 45 45 44 43 42 42 42 42 41 41 41 41 42 41 41 41 41 41 41 41 41 41 41 41 41 41 42 42 42 42
54 54 55 55 55 54 53 53 50 49 49 48 47 47 46 46 45 44 43 43 43 43 43 43 43 43 42 42 41 41 41 41 41 41 42 42 42 42 42 42 43 43 43
55 55 55 56 55 55 55 54 53 52 51 50 50 48 47 46 46 46 45 45 44 44 43 44 44 44 44 43 42 42 42 42 42 43 43 43 43 43 43 44 45 44 44
55 55 55 55 55 54 54 53 53 53 52 52 51 50 49 48 48 47 47 46 45 45 45 45 44 44 43 43 43 43 42 43 43 44 44 44 44 44 45 45 45 45 45
54 55 55 55 55 54 54 53 53 53 52 52 51 50 49 49 49 48 48 47 47 46 45 45 45 44 44 44 44 44 44 44 44 44 44 45 45 45 46 46 46 47 47
52 53 53 54 53 53 53 53 52 52 53 52 52 52 51 50 50 50 49 48 48 47 46 45 45 45 46 45 45 45 46 45 45 45 45 46 47 48 48 48 47 47 48
50 51 51 52 53 54 53 53 53 52 53 53 53 53 52 51 50 50 49 49 49 48 47 46 46 46 46 46 46 46 46 45 45 46 47 47 48 49 49 49 48 48 48
47 49 50 51 51 52 53 54 53 53 53 53 53 53 53 52 51 50 50 50 50 49 48 48 46 46 46 46 46 46 46 46 46 47 47 48 49 49 49 49 49 49 49
44 45 47 48 49 50 51 52 54 54 54 53 53 53 53 53 52 51 50 50 49 49 49 48 48 47 46 46 46 46 46 46 47 47 47 48 48 49 50 50 50 50 49
42 43 44 45 46 47 48 50 52 53 54 54 53 53 53 53 53 51 50 50 50 50 49 48 48 48 48 48 47 47 47 47 47 47 47 48 49 49 50 50 49 49 49
39 40 42 43 44 46 46 47 48 49 50 52 52 52 52 52 51 52 51 50 49 48 48 48 48 49 49 49 48 48 48 48 48 48 48 48 48 48 48 48 48 48 48
38 38 39 41 42 44 45 45 45 46 47 49 50 50 49 49 49 49 49 49 48 48 47 47 47 48 48 48 48 48 49 48 48 48 48 47 47 47 48 47 46 46 46
37 37 37 38 40 41 42 42 43 43 44 44 45 47 47 46 46 46 46 47 48 48 48 48 47 48 48 49 49 49 49 48 48 48 48 47 47 47 47 46 45 45 45
36 36 36 37 38 39 40 41 40 40 41 41 43 44 45 45 45 45 45 46 46 47 47 47 47 47 47 48 49 49 49 49 48 48 48 48 47 47 46 46 46 46 46
34 34 35 35 37 38 39 40 40 40 41 41 42 42 43 43 43 44 44 44 44 45 45 46 46 46 46 47 47 47 47 48 48 48 48 48 47 47 46 45 44 45 45
Wind_Direction
249 249 249 249 249 249 250 249 249 250 251 251 251 251 252 253 253 253 254 255 254 255 257 259 261 262 264 264 265 267 266 266 266 267 268 269 269 270 271 271 271 272 273
250 249 248 248 249 249 250 250 250 250 251 251 251 251 252 253 254 254 255 256 257 257 257 259 260 262 263 264 265 266 267 267 266 267 268 269 270 271 272 272 272 273 274
250 249 248 248 248 249 250 251 251 251 250 251 251 251 252 253 254 255 256 257 258 258 259 260 260 261 263 264 265 266 267 267 266 267 269 269 270 271 271 272 273 273 274
249 249 248 248 248 248 249 250 252 251 251 251 252 252 252 253 254 255 256 257 258 258 259 260 261 261 262 263 265 266 267 268 267 267 267 268 269 270 270 272 273 274 275
248 248 248 248 248 249 249 250 251 251 251 252 252 253 253 254 254 255 256 256 257 258 259 260 260 261 262 263 263 265 267 267 268 267 268 269 270 271 271 272 273 274 274
248 247 247 247 247 248 249 250 251 251 251 252 253 253 254 254 255 255 255 256 257 258 258 259 260 261 262 263 263 265 265 266 267 268 268 268 269 270 272 272 273 273 275
248 248 247 247 247 248 249 250 251 251 251 253 254 254 254 255 255 256 256 257 257 258 259 259 260 261 262 263 264 265 266 266 266 267 268 268 269 271 272 274 274 275 275
248 248 247 246 247 248 249 250 251 251 252 252 253 254 254 255 255 256 256 257 258 258 259 259 261 262 261 263 264 265 266 266 265 267 268 269 270 271 272 274 275 276 275
247 247 247 246 246 246 248 249 250 252 252 252 252 254 254 255 256 255 255 256 258 258 259 260 261 262 263 262 263 265 266 266 266 269 270 271 271 273 274 274 275 275 275
248 247 247 247 246 246 247 247 248 251 252 252 253 254 255 255 255 256 256 256 257 258 260 261 261 262 263 264 264 264 265 266 268 270 272 273 273 274 275 276 275 275 276
248 248 247 246 246 247 247 248 247 249 250 252 253 254 254 255 255 255 256 257 257 259 259 260 260 261 263 264 265 265 266 267 269 271 272 273 274 275 275 276 276 276 277
249 248 247 247 246 247 247 248 248 248 249 251 252 252 253 254 255 255 256 257 257 257 259 260 260 262 263 264 264 265 266 268 269 270 271 272 274 275 276 277 276 278 278
248 248 248 247 247 247 247 248 248 248 249 250 251 252 253 254 255 256 256 256 257 257 258 259 260 261 262 263 264 266 267 268 268 269 271 272 274 275 276 277 277 278 278
248 248 248 247 247 247 248 248 247 247 248 250 251 252 252 253 254 256 256 257 258 257 258 259 260 261 262 263 264 265 266 268 269 270 272 273 274 275 277 277 278 278 277
249 249 249 247 247 247 247 247 247 247 248 249 249 251 252 252 254 255 256 257 258 258 258 259 260 261 262 263 264 265 267 269 270 271 272 273 273 274 276 277 277 278 277
249 248 248 247 246 246 247 248 248 247 248 248 248 249 251 253 254 255 256 257 258 259 259 259 259 261 262 263 265 266 268 269 271 272 272 273 273 274 276 277 277 276 276
249 248 247 246 246 246 247 247 247 247 247 248 249 250 251 252 253 254 255 257 258 259 259 259 259 261 262 264 266 267 268 269 270 271 272 273 274 275 276 276 276 276 276
249 248 247 246 245 245 246 247 247 247 248 248 249 250 251 252 253 254 255 257 259 260 260 260 260 262 262 263 265 266 267 268 270 272 273 273 275 276 276 275 276 276 276
250 249 247 247 246 246 246 246 246 247 247 248 249 250 251 252 253 254 256 258 259 259 260 261 261 262 263 264 265 265 266 268 270 272 273 274 275 276 275 276 276 276 276
252 249 249 247 246 246 246 246 246 246 247 248 249 250 251 252 253 254 255 257 257 259 260 260 261 263 264 264 265 265 266 267 269 271 274 276 277 276 276 276 276 276 276
253 251 249 248 247 246 246 247 246 246 247 248 249 250 251 252 253 254 255 256 257 259 260 261 262 262 264 265 265 265 266 268 270 272 274 276 277 277 276 276 277 277 276
253 252 249 247 246 245 246 246 246 246 246 247 248 250 251 251 253 253 254 255 256 258 260 261 262 262 263 264 265 266 267 268 270 272 275 276 276 277 277 277 277 276 275
254 253 250 247 247 247 246 246 246 246 247 247 248 249 250 251 252 253 254 255 257 258 259 261 262 262 264 264 266 267 268 269 271 273 274 276 276 276 276 275 276 276 275
252 251 250 249 248 246 246 247 246 246 246 247 248 248 249 250 252 252 254 256 257 257 259 260 262 263 264 265 266 268 269 269 271 273 274 275 276 276 275 274 274 275 276
250 250 250 249 248 247 246 246 245 246 246 247 248 249 250 252 252 252 254 255 257 258 258 260 262 264 265 266 267 268 269 269 270 272 274 275 275 274 274 274 274 275 275
252 252 250 248 247 246 246 246 245 245 245 247 249 250 251 252 252 253 254 255 256 257 259 261 262 263 265 267 268 269 270 270 271 272 273 274 274 273 272 272 273 274 274
Height
5789 5790 5792 5794 5796 5798 5800 5802 5804 5806 5808 5810 5812 5814 5816 5817 5819 5821 5822 5824 5825 5826 5827 5828 5829 5830 5831 5832 5832 5833 5834 5835 5835 5836 5836 5836 5837 5837 5837 5838 5838 5838 5838
5781 5783 5785 5787 5789 5791 5793 5795 5797 5799 5801 5803 5805 5807 5809 5811 5813 5814 5816 5817 5819 5820 5821 5822 5823 5824 5825 5826 5827 5828 5828 5829 5830 5830 5831 5831 5831 5832 5832 5832 5832 5832 5832
5772 5774 5776 5779 5781 5783 5785 5787 5790 5792 5794 5796 5798 5800 5802 5804 5806 5807 5809 5810 5812 5814 5815 5816 5817 5818 5819 5820 5821 5822 5823 5823 5824 5824 5825 5825 5825 5826 5826 5826 5826 5826 5826
5763 5765 5768 5770 5772 5775 5777 5780 5782 5784 5786 5788 5790 5793 5795 5796 5798 5800 5802 5804 5805 5807 5808 5809 5810 5812 5813 5813 5814 5815 5816 5817 5817 5818 5818 5819 5819 5819 5819 5820 5820 5820 5820
5753 5756 5758 5761 5764 5766 5769 5771 5773 5776 5778 5780 5782 5784 5786 5789 5791 5792 5794 5796 5797 5799 5801 5802 5804 5805 5806 5807 5807 5808 5809 5810 5810 5811 5811 5812 5812 5812 5812 5812 5813 5813 5813
5743 5745 5748 5751 5754 5757 5760 5762 5765 5767 5769 5771 5774 5776 5778 5780 5782 5784 5786 5788 5789 5791 5793 5795 5796 5797 5798 5799 5800 5801 5801 5802 5803 5803 5804 5804 5805 5804 5804 5805 5805 5805 5805
5732 5735 5738 5741 5744 5747 5750 5753 5756 5758 5760 5763 5765 5767 5769 5772 5774 5776 5778 5780 5782 5783 5785 5787 5788 5789 5791 5791 5792 5793 5794 5794 5795 5796 5796 5796 5796 5796 5797 5797 5797 5797 5797
5721 5724 5727 5730 5733 5737 5740 5743 5746 5748 5750 5753 5756 5758 5760 5763 5765 5767 5769 5771 5773 5775 5776 5778 5780 5781 5782 5783 5784 5785 5786 5786 5787 5787 5787 5788 5788 5788 5788 5788 5788 5788 5788
5709 5712 5716 5719 5722 5725 5729 5732 5735 5738 5740 5743 5746 5748 5750 5753 5756 5758 5759 5762 5764 5765 5767 5769 5771 5772 5774 5775 5776 5776 5777 5777 5778 5778 5778 5779 5779 5779 5779 5779 5779 5778 5778
5697 5700 5703 5707 5710 5714 5717 5721 5724 5727 5729 5732 5735 5737 5740 5743 5746 5748 5750 5752 5754 5756 5758 5760 5761 5763 5764 5765 5767 5767 5768 5769 5769 5769 5769 5769 5769 5769 5769 5769 5769 5768 5768
5684 5687 5690 5694 5698 5701 5705 5709 5712 5715 5718 5721 5724 5727 5729 5732 5735 5738 5741 5743 5745 5746 5748 5750 5752 5753 5754 5756 5757 5758 5758 5759 5760 5760 5760 5760 5759 5759 5759 5758 5758 5758 5757
5670 5674 5677 5680 5684 5689 5693 5696 5700 5703 5706 5709 5713 5716 5718 5721 5724 5727 5730 5732 5734 5736 5738 5740 5741 5743 5744 5745 5747 5748 5748 5749 5750 5750 5750 5750 5749 5749 5748 5748 5748 5747 5746
5656 5659 5662 5666 5670 5674 5679 5683 5687 5690 5694 5697 5701 5704 5707 5710 5713 5716 5718 5721 5723 5726 5728 5729 5731 5732 5734 5735 5736 5737 5738 5738 5739 5739 5739 5739 5739 5738 5738 5737 5736 5736 5735
5641 5644 5648 5652 5656 5660 5664 5668 5673 5677 5681 5685 5688 5692 5695 5698 5701 5704 5707 5709 5712 5715 5717 5719 5720 5721 5722 5724 5725 5726 5727 5728 5728 5728 5728 5728 5728 5727 5727 5726 5725 5724 5723
5625 5629 5633 5637 5642 5646 5650 5654 5659 5663 5667 5672 5676 5679 5683 5686 5689 5692 5694 5697 5700 5703 5706 5707 5709 5710 5711 5712 5714 5715 5716 5716 5717 5717 5717 5717 5716 5716 5715 5714 5713 5713 5712
5609 5614 5618 5622 5627 5632 5636 5641 5645 5650 5654 5658 5662 5666 5670 5673 5676 5679 5682 5685 5688 5691 5694 5696 5697 5698 5699 5701 5702 5703 5704 5705 5705 5705 5705 5705 5705 5704 5704 5703 5702 5701 5699
5595 5599 5603 5608 5613 5618 5622 5627 5631 5636 5641 5645 5649 5653 5657 5660 5663 5666 5670 5672 5675 5678 5681 5684 5685 5686 5687 5688 5690 5691 5692 5692 5693 5693 5693 5693 5692 5692 5691 5690 5689 5688 5687
5581 5585 5589 5594 5599 5604 5608 5613 5618 5622 5627 5631 5635 5640 5644 5647 5650 5654 5657 5660 5662 5665 5668 5671 5672 5673 5675 5676 5677 5678 5679 5680 5681 5681 5680 5680 5679 5678 5677 5676 5675 5674 5673
5568 5572 5576 5580 5585 5590 5594 5599 5604 5609 5613 5618 5622 5626 5630 5634 5638 5641 5644 5647 5649 5652 5655 5657 5659 5661 5662 5663 5664 5666 5666 5667 5668 5668 5667 5667 5666 5665 5664 5663 5661 5660 5659
5557 5560 5563 5567 5572 5576 5580 5585 5590 5595 5599 5604 5608 5612 5617 5621 5624 5628 5631 5634 5636 5639 5641 5643 5646 5648 5649 5650 5651 5653 5654 5654 5655 5654 5654 5653 5652 5651 5650 5649 5648 5646 5645
5546 5548 5551 5555 5559 5563 5567 5571 5576 5581 5586 5590 5595 5599 5603 5607 5610 5614 5617 5620 5622 5625 5627 5629 5632 5634 5635 5636 5638 5639 5640 5641 5641 5641 5640 5639 5638 5637 5636 5634 5633 5632 5631
5535 5537 5539 5543 5546 5551 5555 5558 5562 5567 5572 5576 5581 5585 5589 5593 5596 5600 5603 5606 5609 5611 5614 5616 5618 5620 5622 5623 5624 5625 5626 5628 5629 5628 5627 5626 5624 5623 5621 5620 5619 5617 5616
5525 5526 5528 5531 5535 5539 5542 5546 5550 5554 5559 5563 5568 5572 5576 5579 5583 5586 5589 5592 5595 5597 5600 5603 5605 5606 5608 5610 5611 5612 5612 5613 5614 5614 5613 5612 5611 5609 5608 5606 5605 5603 5602
5514 5516 5519 5521 5524 5527 5531 5534 5538 5542 5547 5551 5555 5559 5563 5566 5569 5573 5576 5579 5581 5584 5587 5589 5592 5593 5594 5595 5596 5597 5598 5599 5599 5599 5598 5598 5597 5596 5594 5593 5591 5590 5589
5505 5507 5509 5512 5514 5517 5520 5524 5527 5531 5536 5540 5544 5547 5551 5554 5557 5561 5563 5566 5569 5571 5572 5575 5577 5579 5580 5581 5582 5583 5584 5584 5585 5585 5584 5584 5583 5582 5581 5580 5578 5577 5576
5496 5498 5500 5502 5505 5507 5510 5513 5517 5521 5525 5529 5533 5536 5539 5542 5545 5547 5550 5553 5556 5558 5560 5562 5564 5565 5566 5567 5568 5569 5569 5570 5570 5571 5570 5569 5568 5567 5568 5568 5566 5564 5563